User: anonymous   Login
Location: Kershaw
(34.5481°N, 80.5823°W)
Time: 08:45:26
(UTC+00:00)
Language:

Altair - Orbit

View from above orbital plane
View from above orbital plane
View from above satellite
View from above satellite

Ground track
Ground track

The orbit data is extracted from the following two-line orbital elements,

1 00050U 60009B   24063.80920530 -.00000100  00000-0 -12824-3 0  9995
2 00050  47.2283 234.6455 0113457  45.3379 315.6592 12.20138247835708
Epoch (UTC): 03 March 2024 19:25:15
Eccentricity: 0.0113457
inclination: 47.2283°
perigee height: 1501 km
apogee height: 1682 km
right ascension of ascending node: 234.6455°
argument of perigee: 45.3379°
revolutions per day: 12.20138247
mean anomaly at epoch: 315.6592°
orbit number at epoch: 83570

The dashed part of the orbit path shows where the satellite is in the earth's shadow,  

DLR